| time (UTC) | temp C | wind direction | speed KPH | gust KPH | rain 1hr cm | rain 24hr cm | rain mn cm | humidity % | barometer mb |
| 20260502151557 | 11 | 267 | 16.1 | 25.7 | 0.00 | 0.00 | 0.00 | 45 | 1019.2 |
| 20260502140127 | 8 | 273 | 11.3 | 16.1 | 0.00 | 0.00 | 0.00 | 56 | 1019.6 |
| 20260502123043 | 2 | 0 | 0.0 | 1.6 | 0.00 | 0.00 | 0.00 | 73 | 1020.1 |
| 20260502121547 | 2 | 0 | 0.0 | 1.6 | 0.00 | 0.00 | 0.00 | 69 | 1019.9 |
| 20260502114550 | 1 | 262 | 0.0 | 3.2 | 0.00 | 0.00 | 0.00 | 74 | 1020.0 |
| 20260502113053 | 0 | 0 | 0.0 | 1.6 | 0.00 | 0.00 | 0.00 | 76 | 1019.9 |
| 20260502111551 | 0 | 0 | 0.0 | 1.6 | 0.00 | 0.00 | 0.00 | 76 | 1019.9 |
| 20260502110058 | 0 | 262 | 0.0 | 1.6 | 0.00 | 0.00 | 0.00 | 76 | 1020.0 |
| 20260502104550 | 0 | 0 | 0.0 | 3.2 | 0.00 | 0.00 | 0.00 | 76 | 1019.9 |
| 20260502103053 | 1 | 262 | 0.0 | 4.8 | 0.00 | 0.00 | 0.00 | 74 | 1020.0 |
| 20260502101557 | 1 | 262 | 1.6 | 3.2 | 0.00 | 0.00 | 0.00 | 73 | 1020.1 |
| 20260502090112 | 1 | 276 | 1.6 | 3.2 | 0.00 | 0.00 | 0.00 | 72 | 1019.9 |
| 20260502070105 | 2 | 0 | 0.0 | 1.6 | 0.00 | 0.00 | 0.00 | 68 | 1020.3 |
| 20260502064557 | 1 | 0 | 0.0 | 0.0 | 0.00 | 0.00 | 0.00 | 71 | 1020.3 |
| 20260502063050 | 2 | 0 | 0.0 | 0.0 | 0.00 | 0.00 | 0.00 | 69 | 1020.5 |
| 20260502061543 | 2 | 0 | 0.0 | 0.0 | 0.00 | 0.00 | 0.00 | 66 | 1020.5 |
| 20260502060038 | 3 | 0 | 0.0 | 1.6 | 0.00 | 0.00 | 0.00 | 65 | 1020.5 |
| 20260502054555 | 2 | 0 | 0.0 | 0.0 | 0.00 | 0.00 | 0.00 | 66 | 1020.6 |
| 20260502053044 | 3 | 0 | 0.0 | 0.0 | 0.00 | 0.00 | 0.00 | 63 | 1020.5 |
| 20260502051548 | 4 | 0 | 0.0 | 3.2 | 0.00 | 0.00 | 0.00 | 60 | 1020.4 |
| 20260502050042 | 4 | 41 | 1.6 | 3.2 | 0.00 | 0.00 | 0.00 | 60 | 1020.5 |
| 20260502044542 | 4 | 40 | 1.6 | 3.2 | 0.00 | 0.00 | 0.00 | 62 | 1020.6 |
| 20260502043039 | 3 | 40 | 1.6 | 3.2 | 0.00 | 0.00 | 0.00 | 63 | 1020.6 |
| 20260502041553 | 4 | 41 | 1.6 | 3.2 | 0.00 | 0.00 | 0.00 | 62 | 1020.6 |
| 20260502040048 | 4 | 41 | 1.6 | 3.2 | 0.00 | 0.00 | 0.00 | 61 | 1020.5 |
| 20260502034547 | 4 | 41 | 0.0 | 1.6 | 0.00 | 0.00 | 0.00 | 62 | 1020.4 |
| 20260502033050 | 5 | 41 | 1.6 | 1.6 | 0.00 | 0.00 | 0.00 | 61 | 1020.3 |
| 20260502031555 | 5 | 0 | 0.0 | 1.6 | 0.00 | 0.00 | 0.00 | 58 | 1020.1 |
| 20260502030053 | 6 | 0 | 0.0 | 3.2 | 0.00 | 0.00 | 0.00 | 57 | 1020.1 |
| 20260502024558 | 6 | 41 | 0.0 | 3.2 | 0.00 | 0.00 | 0.00 | 56 | 1020.1 |
| 20260502023106 | 6 | 41 | 0.0 | 4.8 | 0.00 | 0.00 | 0.00 | 55 | 1019.8 |
| 20260502021541 | 6 | 41 | 0.0 | 1.6 | 0.00 | 0.00 | 0.00 | 55 | 1019.9 |
| 20260502020050 | 7 | 77 | 1.6 | 6.4 | 0.00 | 0.00 | 0.00 | 55 | 1019.8 |
| 20260502014545 | 7 | 27 | 3.2 | 8.0 | 0.00 | 0.00 | 0.00 | 53 | 1019.7 |
| 20260502013044 | 8 | 0 | 0.0 | 4.8 | 0.00 | 0.00 | 0.00 | 52 | 1019.4 |
| 20260502011542 | 9 | 38 | 1.6 | 8.0 | 0.00 | 0.00 | 0.00 | 48 | 1019.3 |
| 20260502010047 | 10 | 87 | 4.8 | 11.3 | 0.00 | 0.00 | 0.00 | 46 | 1019.3 |
| 20260502004546 | 10 | 66 | 6.4 | 19.3 | 0.00 | 0.00 | 0.00 | 44 | 1019.0 |
| 20260502003045 | 11 | 322 | 11.3 | 17.7 | 0.00 | 0.00 | 0.00 | 42 | 1019.1 |
| 20260502001551 | 11 | 38 | 9.7 | 19.3 | 0.00 | 0.00 | 0.00 | 42 | 1019.0 |
| 20260502000101 | 11 | 334 | 12.9 | 24.1 | 0.00 | 0.00 | 0.00 | 41 | 1019.0 |
| 20260501234547 | 11 | 345 | 11.3 | 20.9 | 0.00 | 0.00 | 0.00 | 41 | 1019.1 |
| 20260501233046 | 11 | 65 | 6.4 | 20.9 | 0.00 | 0.00 | 0.00 | 43 | 1018.9 |
| 20260501231543 | 11 | 25 | 9.7 | 25.7 | 0.00 | 0.00 | 0.00 | 41 | 1018.9 |
| 20260501230042 | 11 | 23 | 8.0 | 17.7 | 0.00 | 0.00 | 0.00 | 44 | 1018.8 |
| 20260501224559 | 11 | 79 | 11.3 | 19.3 | 0.00 | 0.00 | 0.00 | 42 | 1018.8 |
| 20260501223038 | 11 | 82 | 8.0 | 22.5 | 0.00 | 0.00 | 0.00 | 43 | 1018.8 |
| 20260501221546 | 11 | 66 | 11.3 | 22.5 | 0.00 | 0.00 | 0.00 | 43 | 1018.9 |
| 20260501220043 | 10 | 332 | 8.0 | 17.7 | 0.00 | 0.00 | 0.00 | 44 | 1018.9 |
| 20260501214545 | 11 | 63 | 11.3 | 27.4 | 0.00 | 0.00 | 0.00 | 44 | 1018.7 |
| 20260501213046 | 11 | 42 | 8.0 | 16.1 | 0.00 | 0.00 | 0.00 | 46 | 1018.9 |
| 20260501211549 | 11 | 359 | 8.0 | 24.1 | 0.00 | 0.00 | 0.00 | 42 | 1018.8 |
| 20260501210038 | 11 | 90 | 8.0 | 17.7 | 0.00 | 0.00 | 0.00 | 44 | 1019.1 |
| 20260501204546 | 11 | 316 | 11.3 | 25.7 | 0.00 | 0.00 | 0.00 | 46 | 1019.0 |
| 20260501203043 | 10 | 61 | 9.7 | 20.9 | 0.00 | 0.00 | 0.00 | 43 | 1019.2 |
| 20260501201540 | 10 | 44 | 9.7 | 19.3 | 0.00 | 0.00 | 0.00 | 44 | 1019.5 |
| 20260501200049 | 10 | 3 | 8.0 | 24.1 | 0.00 | 0.00 | 0.00 | 46 | 1019.3 |
| 20260501194555 | 10 | 49 | 6.4 | 22.5 | 0.00 | 0.00 | 0.00 | 47 | 1019.4 |
| 20260501193045 | 10 | 70 | 11.3 | 20.9 | 0.00 | 0.00 | 0.00 | 48 | 1019.5 |
| 20260501191550 | 10 | 51 | 8.0 | 20.9 | 0.00 | 0.00 | 0.00 | 48 | 1019.6 |
| 20260501190043 | 9 | 32 | 9.7 | 17.7 | 0.00 | 0.00 | 0.00 | 49 | 1019.6 |
| 20260501184545 | 10 | 342 | 6.4 | 24.1 | 0.00 | 0.00 | 0.00 | 52 | 1019.5 |
| 20260501183049 | 8 | 91 | 9.7 | 22.5 | 0.00 | 0.00 | 0.00 | 52 | 1019.6 |
| 20260501181539 | 9 | 39 | 6.4 | 22.5 | 0.00 | 0.00 | 0.00 | 51 | 1019.6 |
| 20260501180050 | 8 | 60 | 8.0 | 24.1 | 0.00 | 0.00 | 0.00 | 52 | 1019.6 |
| 20260501174546 | 8 | 296 | 8.0 | 20.9 | 0.00 | 0.00 | 0.00 | 52 | 1019.8 |
| 20260501173110 | 7 | 323 | 8.0 | 27.4 | 0.00 | 0.00 | 0.00 | 54 | 1019.7 |
| 20260501171542 | 7 | 337 | 11.3 | 20.9 | 0.00 | 0.00 | 0.00 | 53 | 1019.7 |
| 20260501170045 | 7 | 72 | 12.9 | 32.2 | 0.00 | 0.00 | 0.00 | 55 | 1019.7 |
| 20260501164601 | 7 | 338 | 14.5 | 25.7 | 0.00 | 0.00 | 0.00 | 53 | 1019.6 |
| 20260501163045 | 6 | 314 | 17.7 | 29.0 | 0.00 | 0.00 | 0.00 | 59 | 1019.6 |
| 20260501161544 | 6 | 316 | 17.7 | 29.0 | 0.00 | 0.00 | 0.00 | 57 | 1019.6 |
| 20260501160043 | 6 | 323 | 12.9 | 29.0 | 0.00 | 0.00 | 0.00 | 57 | 1019.6 |
| 20260501154555 | 6 | 311 | 11.3 | 32.2 | 0.00 | 0.00 | 0.00 | 60 | 1019.6 |
| 20260501153047 | 6 | 300 | 17.7 | 32.2 | 0.00 | 0.00 | 0.00 | 55 | 1019.7 |